{"data":{"norad_id":82180,"intl_designator":"","name":"UNKNOWN","alt_names":[],"object_type":"UNKNOWN","status":"UNKNOWN","operator":null,"country":null,"launch_date":null,"launch_site_code":null,"launch_vehicle":null,"mission":null,"orbit_class":"UNKNOWN","rcs_meters":null,"size_class":null,"mass_kg":null,"dimensions":null,"purposes":[],"wikipedia_slug":null,"has_3d_model":false,"image_url":null,"decayed_at":null,"tle_current":{"epoch":"2026-09-17T11:56:19.000032Z","epoch_age_seconds":273910,"freshness":"STALE","line1":"1 82180U          26260.49744213  .00010785  00000+0  13706-2 0  9998","line2":"2 82180  65.6514 214.5540 0271309  69.2895 293.7062 14.59334402642321","mean_motion":14.59334402,"eccentricity":0.0271309,"inclination_deg":65.6514,"raan_deg":214.554,"arg_perigee_deg":69.2895,"mean_anomaly_deg":293.7062,"bstar":0.0013706,"rev_number":64232,"period_min":98.675121893001,"perigee_km":503.41459891093,"apogee_km":887.23332287881,"semimajor_km":7073.4609608949,"source":"CELESTRAK","updated_at":"2026-09-20T09:00:32.430802Z"}}}